RH
34 28 33 41 38 34 38 44 53 49 37 31 54 54 85 70 40 37 36 43 73 90 80 96 100 93 73 70 77 68 74 68 68 59 57 52 48 47 54 52 52 55 58 59
34 26 26 31 28 27 28 31 36 38 32 23 22 20 25 24 28 33 38 41 47 64 70 74 77 72 61 64 66 62 64 66 59 57 52 53 50 47 50 52 53 56 66 86
42 27 32 58 42 33 29 27 30 38 31 24 24 25 26 26 26 31 40 43 48 52 61 65 64 61 58 59 59 59 59 60 54 53 48 48 44 40 40 44 49 63 78 76
58 48 90 46 28 28 40 31 35 32 30 26 26 23 25 28 34 41 45 50 51 50 53 58 56 56 54 54 57 60 63 58 52 51 46 42 40 37 38 39 41 41 47 52
86 60 47 38 29 31 34 37 27 29 26 28 30 39 40 40 47 50 52 51 50 49 50 55 54 53 52 56 57 62 61 52 50 50 46 42 40 39 38 38 39 38 36 38
90 90 64 34 29 36 33 54 49 44 54 62 45 57 54 44 47 50 52 50 49 49 50 56 62 55 61 70 66 68 56 52 46 48 46 45 41 40 39 38 38 36 37 36
62 76 45 39 54 44 58 52 58 59 58 62 64 55 48 49 50 52 50 51 50 50 52 59 72 68 99 100 100 99 73 50 47 44 44 44 43 39 40 38 39 42 40 40
56 65 68 46 44 57 55 47 50 58 57 55 54 54 53 50 53 53 54 53 52 52 54 60 63 94 100 100 100 100 100 95 75 68 40 38 44 42 39 39 43 47 47 47
43 43 42 49 49 39 41 46 53 58 57 56 52 49 46 52 54 53 56 58 54 52 58 60 62 72 100 100 100 100 100 100 100 100 98 70 68 73 56 48 55 66 70 78
73 52 42 39 37 39 39 51 47 54 67 62 52 46 48 47 51 54 62 73 57 61 68 71 66 70 79 78 71 76 89 97 98 100 100 100 89 86 83 90 91 97 93 94
57 41 38 38 37 39 40 43 48 53 46 49 50 52 48 48 49 50 60 64 68 78 82 80 71 73 69 65 60 60 58 57 55 62 84 95 100 100 100 100 99 100 100 100
71 40 40 34 33 35 40 45 41 56 56 52 49 49 47 49 48 49 55 60 63 69 71 68 66 67 61 55 53 51 51 49 48 50 63 69 75 94 89 90 86 81 81 97
48 37 38 38 40 39 39 38 38 55 49 47 41 43 46 47 50 62 56 59 63 70 68 77 92 80 58 55 54 53 50 49 53 58 60 66 70 76 92 96 79 83 79 78
33 34 42 40 41 36 34 35 46 48 44 46 45 45 49 50 52 56 59 60 59 61 72 82 82 97 100 99 94 95 100 74 90 94 99 99 100 100 99 100 94 93 78 70
30 30 35 35 38 44 39 46 51 48 46 49 49 54 52 53 53 56 55 57 58 59 62 63 65 80 70 68 67 72 73 75 88 86 83 79 78 78 77 80 81 80 80 77
29 35 43 53 52 52 53 54 53 51 50 54 55 56 54 53 53 54 56 57 63 65 60 81 70 92 92 86 82 77 79 75 77 73 75 75 72 72 70 70 67 65 70 75
47 47 45 55 54 59 59 55 54 55 56 59 64 62 58 61 62 63 60 62 77 100 98 93 100 97 94 96 88 72 72 69 75 67 69 70 71 71 66 67 66 62 70 89
52 56 64 65 64 64 64 65 63 64 63 65 78 94 100 100 100 99 98 95 97 100 100 100 100 91 89 94 80 65 68 67 71 72 67 74 68 61 61 57 57 63 68 69
72 76 78 76 78 72 70 67 70 75 88 95 99 100 100 100 100 100 100 99 97 100 100 100 94 91 90 89 73 63 68 72 65 62 64 66 74 57 64 74 72 76 70 70
97 96 90 85 82 81 87 92 98 100 100 100 100 100 100 100 100 100 100 100 99 91 99 95 86 78 74 73 81 57 69 76 65 66 77 65 76 85 78 72 76 86 98 93
92 96 98 93 93 93 95 100 100 100 100 100 100 100 100 100 100 100 98 79 98 93 76 81 67 60 56 59 68 70 81 90 87 80 82 87 94 85 90 98 96 95 98 94
94 96 96 92 91 94 95 99 94 99 97 92 89 90 93 96 94 90 91 80 66 81 66 63 64 69 59 76 61 83 81 81 84 86 87 93 91 95 92 91 88 90 91 92
93 91 95 96 93 93 93 92 94 94 94 93 92 96 90 77 72 74 75 67 61 74 60 69 74 82 82 91 92 96 94 91 91 89 90 91 90 89 87 87 88 88 88 90
94 92 92 90 87 80 91 93 87 90 94 94 98 96 85 89 92 76 73 83 90 96 97 95 93 84 85 99 98 98 96 96 95 96 93 94 97 97 96 96 94 95 95 93
95 91 89 88 82 85 85 84 81 81 82 80 81 78 79 74 89 85 89 89 88 88 95 94 93 94 100 100 100 100 99 99 99 98 96 96 95 95 95 94 92 95 97 98
84 79 81 83 78 75 75 73 79 76 74 83 82 88 91 86 81 78 83 86 83 81 88 95 96 99 100 97 99 100 98 94 96 94 95 94 94 92 94 94 96 95 93 92
82 78 74 76 72 70 70 71 79 82 82 85 85 86 80 88 89 82 88 91 92 92 91 92 92 89 90 92 92 93 95 95 96 97 100 100 99 98 95 93 92 91 92 92
Wind_Speed
14 15 13 17 21 19 19 21 21 23 23 30 14 14 10 10 13 13 13 13 15 16 17 14 13 15 16 15 15 14 13 13 12 12 11 11 10 10 8 7 7 7 6 6
16 18 18 20 22 25 25 22 23 27 32 25 21 18 16 16 15 13 13 12 14 16 17 19 20 19 18 17 16 16 15 14 13 13 12 12 11 10 9 8 8 8 7 6
19 19 18 18 22 25 25 24 24 24 24 20 16 15 16 16 14 12 11 9 10 14 16 17 19 20 20 18 17 16 15 14 15 14 14 13 12 12 11 10 10 9 8 7
16 15 17 17 10 14 18 22 18 19 21 20 20 16 15 10 11 8 7 7 8 10 12 15 17 19 18 18 17 16 15 16 16 15 14 14 13 13 11 10 10 9 8 8
9 12 16 18 12 12 16 16 14 17 18 11 7 7 10 1 4 7 7 6 5 7 11 14 16 18 19 18 17 16 17 16 16 16 15 15 14 13 11 10 9 8 7 7
4 7 11 2 4 8 7 14 8 8 9 14 8 7 4 1 6 6 4 3 4 7 9 13 15 17 18 17 17 17 17 16 16 16 15 15 15 14 12 10 9 7 7 7
12 10 10 4 4 5 11 6 11 11 11 12 11 9 12 7 7 4 3 3 5 7 9 12 13 16 11 11 13 10 14 15 15 16 15 15 14 12 12 11 9 9 8 7
9 14 14 4 2 6 8 13 13 13 9 12 13 13 11 8 7 5 5 6 8 8 9 11 15 10 12 12 10 11 6 7 11 12 12 12 14 13 13 11 11 9 8 7
6 6 1 3 9 9 11 12 14 13 13 14 15 15 13 9 7 7 7 7 8 8 9 12 15 15 13 11 12 11 9 8 7 6 5 10 12 11 11 11 9 8 8 7
5 9 13 15 14 14 10 11 11 8 11 16 19 15 14 10 7 7 8 9 9 10 11 12 13 13 12 14 15 15 13 11 9 9 7 5 7 8 8 8 8 8 8 8
11 17 12 15 14 9 9 11 11 13 17 16 15 12 14 10 7 7 9 10 10 11 11 12 12 13 13 14 16 16 16 14 14 12 12 9 8 8 7 7 8 8 7 7
9 10 9 15 11 11 10 10 12 10 10 9 8 10 10 9 6 7 8 9 11 11 11 12 13 13 13 14 16 16 15 13 11 11 11 10 10 8 2 2 6 3 3 5
16 15 14 17 14 14 16 13 11 10 9 10 10 8 9 8 6 6 8 9 10 11 11 10 10 11 13 14 15 15 14 14 11 10 11 11 11 10 10 7 7 11 11 11
16 16 18 17 14 11 10 12 11 10 8 7 8 8 8 7 5 8 10 11 10 10 10 10 10 9 7 8 9 8 8 10 9 9 8 8 8 7 7 8 9 8 12 12
17 15 17 14 14 14 12 9 7 7 6 6 5 6 7 8 8 7 6 7 9 10 10 12 12 12 13 12 12 13 11 10 9 9 10 10 10 10 9 9 9 8 8 12
11 8 6 8 10 5 4 5 6 6 5 5 5 5 5 5 3 3 5 6 9 9 9 8 10 9 9 10 11 9 9 10 11 9 9 10 10 10 10 10 10 9 9 9
16 14 13 10 6 3 3 4 6 6 6 4 3 3 3 4 4 3 3 3 2 3 4 5 5 7 9 10 11 8 8 10 11 9 9 9 10 10 9 9 10 9 9 8
9 3 2 2 2 4 4 5 5 5 5 3 4 3 3 2 3 4 4 3 3 1 3 4 6 8 9 10 11 8 8 8 9 10 9 9 10 9 10 10 10 10 9 9
4 4 4 4 4 5 5 5 5 6 4 1 5 4 4 3 1 1 5 6 5 4 4 5 7 9 9 9 10 8 7 8 9 9 9 10 9 10 9 9 9 9 9 9
5 5 4 5 5 5 5 4 4 2 3 3 4 4 3 3 2 3 2 1 2 2 2 7 9 8 8 10 11 8 8 8 9 8 8 9 9 9 9 10 9 8 8 8
5 5 5 5 5 5 5 4 3 5 4 5 5 4 5 5 4 4 4 2 2 1 2 6 6 5 6 7 9 7 7 7 8 8 8 8 7 9 8 8 8 8 8 8
5 5 5 5 6 8 7 7 6 6 7 7 6 5 5 6 5 6 6 4 3 2 1 2 3 4 4 8 6 6 7 7 7 7 7 7 8 7 8 8 8 8 8 7
6 6 6 6 7 8 8 9 9 8 9 9 8 8 7 6 5 3 3 5 3 3 1 1 2 5 6 5 4 5 6 6 7 6 6 6 6 7 7 7 7 7 7 7
8 7 7 6 6 7 9 8 8 9 8 9 9 8 6 5 6 5 4 4 4 2 2 2 2 4 6 3 4 4 5 5 5 5 5 6 5 5 5 5 5 5 5 6
8 8 8 7 7 6 7 6 7 7 8 8 9 8 9 8 6 5 5 5 5 4 3 4 2 3 3 2 3 3 3 3 3 4 4 4 4 4 5 5 5 6 5 4
8 7 7 8 6 5 5 5 5 5 4 5 6 6 6 5 5 5 5 5 5 5 4 3 3 1 1 0 1 1 2 2 3 3 3 3 4 4 5 4 4 4 6 6
8 7 6 6 5 6 6 6 5 5 5 5 4 5 6 5 5 6 5 4 4 4 3 3 3 4 3 2 2 2 2 2 3 1 1 1 1 4 6 6 6 6 7 7
Wind_Direction
256 270 281 272 272 274 275 260 252 271 268 276 267 264 255 262 281 275 268 224 205 205 197 186 181 182 180 179 168 176 172 171 167 160 160 151 144 134 134 140 133 127 122 112
269 264 260 269 273 265 265 266 269 270 271 280 287 291 286 275 272 275 269 255 228 210 203 194 191 188 184 181 176 178 179 172 174 163 162 158 151 146 143 145 137 127 121 120
265 274 287 279 267 265 268 264 261 262 273 286 286 281 283 282 281 275 283 270 230 212 204 199 195 191 185 181 177 182 179 175 174 171 167 162 160 159 161 157 147 140 143 133
264 280 263 280 292 274 261 266 278 274 280 283 283 281 288 279 276 293 288 270 233 206 197 195 192 189 183 179 178 179 177 181 175 173 170 168 169 171 167 163 161 159 155 156
249 257 279 278 267 273 268 275 277 285 284 290 284 276 260 172 317 311 312 302 227 192 184 182 186 182 182 178 176 178 182 179 178 175 175 173 176 175 174 173 169 165 161 164
214 256 270 12 15 351 315 278 356 335 3 330 310 285 356 226 313 300 306 273 185 161 168 177 181 177 179 177 179 183 180 180 176 178 181 179 180 178 179 181 174 165 168 171
243 250 268 38 343 294 255 312 334 337 334 322 311 318 316 309 287 284 281 201 165 166 174 171 176 178 161 168 182 165 181 177 176 180 184 183 182 180 180 181 177 179 174 174
245 258 271 102 175 257 328 317 302 303 318 318 311 306 298 293 274 240 209 179 187 178 171 163 176 162 162 176 159 163 165 164 173 182 182 184 184 182 185 184 186 184 182 179
258 269 19 234 269 277 291 301 299 296 291 307 302 301 301 288 240 221 207 187 183 177 164 167 176 175 170 165 153 153 154 148 140 137 160 188 182 181 187 190 188 188 189 195
291 263 261 275 269 259 287 262 271 291 292 288 288 298 296 284 241 212 191 186 178 172 177 176 179 183 176 164 169 163 163 160 157 162 151 163 167 178 194 192 192 191 196 201
246 261 280 270 270 273 284 284 275 266 280 277 288 294 288 283 241 216 190 188 182 180 178 182 181 183 176 173 176 178 179 180 180 180 183 174 188 184 197 199 201 197 200 200
247 269 276 281 292 294 285 277 290 301 293 274 269 287 300 282 250 210 192 188 189 185 182 177 181 184 185 180 180 178 178 181 185 185 186 190 192 191 174 352 193 224 188 199
264 276 274 280 289 280 279 277 287 293 286 301 305 300 293 280 230 191 186 192 202 197 187 175 178 179 181 181 184 183 183 181 179 192 191 195 198 201 200 192 215 219 213 210
268 277 276 271 276 280 274 281 280 272 282 293 301 303 289 268 220 214 207 188 193 183 173 166 171 167 165 173 174 166 167 173 178 187 185 191 198 203 203 203 206 202 212 206
266 263 260 275 284 281 271 267 255 277 303 300 317 298 289 261 241 226 210 186 183 186 179 179 184 179 176 177 177 176 176 181 188 187 192 197 202 208 210 210 211 208 190 196
265 277 261 248 266 283 271 259 272 287 282 304 327 321 307 287 273 201 181 181 184 192 185 181 184 163 167 174 181 181 196 194 195 197 197 202 207 210 212 214 213 211 209 206
264 260 255 243 234 243 290 314 317 301 296 289 3 12 37 71 91 92 114 144 123 110 150 164 170 147 166 173 183 192 199 198 202 211 208 206 212 213 216 214 217 215 217 208
272 299 62 37 268 302 306 319 312 316 300 308 122 117 137 148 138 130 128 123 114 176 164 156 150 163 175 183 193 201 201 206 197 216 216 214 216 214 213 214 217 220 222 214
68 85 66 49 12 336 311 304 311 316 329 252 135 103 64 70 120 134 151 162 171 190 185 160 160 175 181 186 193 204 204 209 207 212 215 210 211 217 212 214 220 221 224 220
77 72 68 64 30 1 340 333 301 19 4 37 92 102 108 88 109 132 141 161 36 48 93 167 169 179 181 178 196 201 206 206 212 211 207 213 215 214 218 221 225 222 218 224
83 80 81 69 53 40 31 19 46 65 34 35 65 69 82 77 72 109 129 136 54 188 55 156 181 178 186 179 191 208 200 207 212 213 212 212 215 220 218 222 219 225 228 230
92 94 87 73 67 56 40 43 59 63 61 62 59 63 84 77 82 76 48 43 60 98 118 133 191 193 191 175 199 196 207 211 214 217 219 218 221 221 222 223 227 230 231 231
103 104 97 81 74 71 61 53 53 58 61 53 53 53 55 51 36 60 94 49 50 72 108 122 126 168 166 194 195 204 211 211 213 216 219 220 221 224 227 228 230 230 228 225
106 98 93 93 93 83 72 63 67 68 71 68 59 42 34 60 58 40 54 57 47 32 41 65 138 160 177 190 200 204 207 210 213 216 218 219 219 217 221 222 219 228 223 222
99 98 95 97 90 78 75 75 78 70 71 69 63 56 45 44 44 32 20 23 30 356 16 52 54 177 225 224 221 219 218 217 213 210 208 210 210 211 212 213 218 219 212 145
103 89 83 74 78 76 71 70 69 56 70 73 59 40 37 28 23 16 21 16 15 12 14 19 23 10 358 284 215 203 203 180 190 205 207 207 209 212 211 207 152 118 103 103
102 101 100 84 67 65 58 57 67 60 46 46 56 27 23 11 3 351 350 348 358 2 5 17 20 18 15 36 62 73 72 89 46 77 156 141 87 73 75 84 90 96 103 115